| time (UTC) | temp F | wind direction | speed MPH | gust MPH | rain 1hr in | rain 24hr in | rain mn in | humidity % | barometer mb |
| 20260509150044 | 76 | 315 | 6.0 | 12.0 | 0.00 | 0.00 | 0.00 | 76 | 1013.5 |
| 20260509144600 | 75 | 313 | 7.0 | 13.0 | 0.00 | 0.00 | 0.00 | 77 | 1013.6 |
| 20260509143105 | 74 | 317 | 9.0 | 14.0 | 0.00 | 0.00 | 0.00 | 79 | 1013.5 |
| 20260509141547 | 73 | 306 | 9.0 | 12.0 | 0.00 | 0.00 | 0.00 | 81 | 1013.4 |
| 20260509140054 | 72 | 342 | 9.0 | 14.0 | 0.00 | 0.00 | 0.00 | 82 | 1013.6 |
| 20260509134604 | 72 | 304 | 7.0 | 12.0 | 0.00 | 0.00 | 0.00 | 84 | 1013.4 |
| 20260509133046 | 70 | 322 | 7.0 | 13.0 | 0.00 | 0.00 | 0.00 | 87 | 1013.3 |
| 20260509131539 | 69 | 286 | 5.0 | 10.0 | 0.00 | 0.00 | 0.00 | 90 | 1013.2 |
| 20260509130055 | 70 | 329 | 2.0 | 4.0 | 0.00 | 0.00 | 0.00 | 94 | 1012.9 |
| 20260509124549 | 70 | 0 | 0.0 | 0.0 | 0.00 | 0.00 | 0.00 | 95 | 1012.7 |
| 20260509123101 | 69 | 0 | 0.0 | 0.0 | 0.00 | 0.00 | 0.00 | 94 | 1012.5 |
| 20260509121600 | 68 | 0 | 0.0 | 0.0 | 0.00 | 0.00 | 0.00 | 94 | 1012.9 |
| 20260509120038 | 68 | 0 | 0.0 | 0.0 | 0.00 | 0.00 | 0.00 | 94 | 1012.8 |
| 20260509114540 | 69 | 0 | 0.0 | 0.0 | 0.00 | 0.00 | 0.00 | 94 | 1012.8 |
| 20260509113040 | 69 | 0 | 0.0 | 3.0 | 0.00 | 0.00 | 0.00 | 94 | 1012.8 |
| 20260509111559 | 70 | 323 | 3.0 | 9.0 | 0.00 | 0.00 | 0.00 | 95 | 1012.9 |
| 20260509110045 | 70 | 302 | 5.0 | 12.0 | 0.00 | 0.00 | 0.00 | 95 | 1012.4 |
| 20260509104546 | 69 | 286 | 7.0 | 15.0 | 0.00 | 0.00 | 0.00 | 95 | 1012.3 |
| 20260509103047 | 69 | 182 | 6.0 | 14.0 | 0.00 | 0.00 | 0.00 | 95 | 1011.0 |
| 20260509101616 | 69 | 171 | 8.0 | 13.0 | 0.00 | 0.00 | 0.00 | 95 | 1010.7 |
| 20260509100042 | 68 | 184 | 7.0 | 16.0 | 0.00 | 0.00 | 0.00 | 95 | 1010.5 |
| 20260509094540 | 68 | 196 | 8.0 | 15.0 | 0.00 | 0.00 | 0.00 | 95 | 1010.4 |
| 20260509093042 | 68 | 163 | 7.0 | 13.0 | 0.00 | 0.00 | 0.00 | 95 | 1010.4 |
| 20260509091542 | 68 | 142 | 8.0 | 13.0 | 0.00 | 0.00 | 0.00 | 95 | 1010.8 |
| 20260509090041 | 68 | 175 | 6.0 | 11.0 | 0.00 | 0.00 | 0.00 | 94 | 1011.2 |
| 20260509084539 | 68 | 136 | 5.0 | 11.0 | 0.00 | 0.00 | 0.00 | 94 | 1011.4 |
| 20260509083037 | 68 | 154 | 7.0 | 12.0 | 0.00 | 0.00 | 0.00 | 94 | 1011.8 |
| 20260509081546 | 68 | 166 | 3.0 | 8.0 | 0.00 | 0.00 | 0.00 | 93 | 1012.7 |
| 20260509080041 | 69 | 190 | 4.0 | 9.0 | 0.00 | 0.00 | 0.00 | 93 | 1013.6 |
| 20260509074546 | 69 | 268 | 3.0 | 7.0 | 0.00 | 0.00 | 0.00 | 94 | 1014.9 |
| 20260509073037 | 69 | 267 | 3.0 | 6.0 | 0.00 | 0.00 | 0.00 | 93 | 1014.7 |
| 20260509071545 | 68 | 0 | 0.0 | 0.0 | 0.00 | 0.00 | 0.00 | 93 | 1014.5 |
| 20260509070047 | 69 | 0 | 0.0 | 7.0 | 0.00 | 0.00 | 0.00 | 93 | 1014.1 |
| 20260509064551 | 68 | 323 | 2.0 | 5.0 | 0.00 | 0.00 | 0.00 | 93 | 1014.6 |
| 20260509063044 | 68 | 322 | 2.0 | 5.0 | 0.00 | 0.00 | 0.00 | 92 | 1014.1 |
| 20260509061539 | 68 | 0 | 0.0 | 0.0 | 0.00 | 0.00 | 0.00 | 91 | 1013.8 |
| 20260509060049 | 68 | 0 | 0.0 | 0.0 | 0.00 | 0.00 | 0.00 | 91 | 1013.4 |
| 20260509054558 | 68 | 0 | 0.0 | 0.0 | 0.00 | 0.00 | 0.00 | 91 | 1013.3 |
| 20260509053049 | 69 | 0 | 0.0 | 4.0 | 0.00 | 0.00 | 0.00 | 91 | 1013.3 |
| 20260509051542 | 69 | 146 | 3.0 | 6.0 | 0.00 | 0.00 | 0.00 | 91 | 1013.2 |
| 20260509050040 | 70 | 0 | 0.0 | 0.0 | 0.00 | 0.00 | 0.00 | 90 | 1013.5 |
| 20260509044539 | 70 | 0 | 0.0 | 0.0 | 0.00 | 0.00 | 0.00 | 89 | 1013.7 |
| 20260509043041 | 70 | 0 | 0.0 | 5.0 | 0.00 | 0.00 | 0.00 | 90 | 1013.4 |
| 20260509041609 | 71 | 147 | 1.0 | 4.0 | 0.00 | 0.00 | 0.00 | 89 | 1013.1 |
| 20260509040049 | 71 | 0 | 0.0 | 0.0 | 0.00 | 0.00 | 0.00 | 89 | 1013.3 |
| 20260509034538 | 71 | 0 | 0.0 | 0.0 | 0.00 | 0.00 | 0.00 | 89 | 1013.2 |
| 20260509033039 | 71 | 157 | 0.0 | 5.0 | 0.00 | 0.00 | 0.00 | 88 | 1012.9 |
| 20260509031547 | 72 | 167 | 2.0 | 5.0 | 0.00 | 0.00 | 0.00 | 88 | 1012.8 |
| 20260509030044 | 72 | 140 | 2.0 | 4.0 | 0.00 | 0.00 | 0.00 | 87 | 1012.7 |
| 20260509024541 | 72 | 0 | 0.0 | 0.0 | 0.00 | 0.00 | 0.00 | 87 | 1012.9 |
| 20260509023046 | 72 | 0 | 1.0 | 4.0 | 0.00 | 0.00 | 0.00 | 87 | 1012.5 |
| 20260509021538 | 72 | 167 | 1.0 | 3.0 | 0.00 | 0.00 | 0.00 | 86 | 1012.2 |
| 20260509020048 | 73 | 0 | 1.0 | 5.0 | 0.00 | 0.00 | 0.00 | 85 | 1012.2 |
| 20260509014540 | 73 | 0 | 0.0 | 0.0 | 0.00 | 0.00 | 0.00 | 85 | 1011.9 |
| 20260509013046 | 73 | 0 | 0.0 | 0.0 | 0.00 | 0.00 | 0.00 | 84 | 1011.9 |
| 20260509011543 | 73 | 0 | 0.0 | 2.0 | 0.00 | 0.00 | 0.00 | 84 | 1011.8 |
| 20260509010041 | 73 | 151 | 2.0 | 4.0 | 0.00 | 0.00 | 0.00 | 84 | 1011.5 |
| 20260509004542 | 74 | 142 | 1.0 | 5.0 | 0.00 | 0.00 | 0.00 | 83 | 1011.7 |
| 20260509003047 | 74 | 166 | 3.0 | 7.0 | 0.00 | 0.00 | 0.00 | 83 | 1011.5 |
| 20260509001545 | 74 | 132 | 5.0 | 9.0 | 0.00 | 0.00 | 0.00 | 82 | 1011.6 |
| 20260509000042 | 75 | 120 | 3.0 | 9.0 | 0.00 | 0.00 | 0.00 | 81 | 1011.6 |
| 20260508234541 | 75 | 166 | 5.0 | 9.0 | 0.00 | 0.00 | 0.00 | 81 | 1011.5 |
| 20260508233039 | 75 | 116 | 4.0 | 9.0 | 0.00 | 0.00 | 0.00 | 81 | 1011.4 |
| 20260508231537 | 75 | 153 | 8.0 | 13.0 | 0.00 | 0.00 | 0.00 | 81 | 1011.6 |
| 20260508230048 | 75 | 165 | 7.0 | 14.0 | 0.00 | 0.00 | 0.00 | 81 | 1011.5 |
| 20260508224546 | 74 | 161 | 6.0 | 12.0 | 0.00 | 0.00 | 0.00 | 82 | 1011.7 |
| 20260508223042 | 74 | 190 | 8.0 | 13.0 | 0.00 | 0.00 | 0.00 | 81 | 1011.7 |
| 20260508221541 | 73 | 111 | 2.0 | 8.0 | 0.00 | 0.00 | 0.00 | 83 | 1012.0 |
| 20260508220039 | 73 | 143 | 3.0 | 12.0 | 0.00 | 0.00 | 0.00 | 82 | 1012.3 |
| 20260508214537 | 72 | 184 | 3.0 | 10.0 | 0.00 | 0.00 | 0.00 | 83 | 1012.6 |
| 20260508213041 | 72 | 132 | 4.0 | 16.0 | 0.00 | 0.00 | 0.00 | 82 | 1012.2 |
| 20260508211545 | 71 | 132 | 7.0 | 13.0 | 0.00 | 0.00 | 0.00 | 82 | 1012.2 |
| 20260508210045 | 70 | 113 | 6.0 | 16.0 | 0.00 | 0.00 | 0.00 | 83 | 1012.5 |
| 20260508204544 | 69 | 133 | 4.0 | 10.0 | 0.00 | 0.00 | 0.00 | 83 | 1012.9 |
| 20260508203047 | 69 | 138 | 4.0 | 9.0 | 0.00 | 0.00 | 0.00 | 82 | 1013.5 |
| 20260508201548 | 69 | 160 | 4.0 | 8.0 | 0.00 | 0.00 | 0.00 | 80 | 1014.3 |
| 20260508200105 | 69 | 191 | 4.0 | 13.0 | 0.00 | 0.00 | 0.00 | 80 | 1014.3 |
| 20260508194543 | 70 | 182 | 5.0 | 9.0 | 0.00 | 0.00 | 0.00 | 77 | 1014.6 |
| 20260508193053 | 69 | 123 | 5.0 | 9.0 | 0.00 | 0.00 | 0.00 | 79 | 1014.0 |
| 20260508191545 | 70 | 157 | 7.0 | 13.0 | 0.00 | 0.00 | 0.00 | 78 | 1014.3 |
| 20260508190047 | 70 | 173 | 7.0 | 13.0 | 0.00 | 0.00 | 0.00 | 78 | 1014.6 |
| 20260508184551 | 69 | 145 | 7.0 | 12.0 | 0.00 | 0.00 | 0.00 | 78 | 1014.6 |
| 20260508183107 | 69 | 161 | 5.0 | 9.0 | 0.00 | 0.00 | 0.00 | 79 | 1015.0 |
| 20260508181601 | 69 | 136 | 6.0 | 11.0 | 0.00 | 0.00 | 0.00 | 77 | 1015.4 |
| 20260508180042 | 69 | 122 | 7.0 | 11.0 | 0.00 | 0.00 | 0.00 | 75 | 1015.6 |
| 20260508174537 | 70 | 142 | 6.0 | 10.0 | 0.00 | 0.00 | 0.00 | 73 | 1015.5 |
| 20260508173036 | 70 | 150 | 4.0 | 9.0 | 0.00 | 0.00 | 0.00 | 77 | 1015.4 |
| 20260508171545 | 69 | 76 | 5.0 | 10.0 | 0.00 | 0.00 | 0.00 | 76 | 1015.8 |
| 20260508170052 | 69 | 136 | 5.0 | 13.0 | 0.00 | 0.00 | 0.00 | 76 | 1016.1 |
| 20260508164546 | 69 | 121 | 3.0 | 11.0 | 0.00 | 0.00 | 0.00 | 77 | 1016.2 |
| 20260508163037 | 68 | 113 | 4.0 | 10.0 | 0.00 | 0.00 | 0.00 | 80 | 1016.3 |
| 20260508161538 | 67 | 105 | 5.0 | 9.0 | 0.00 | 0.00 | 0.00 | 80 | 1016.2 |
| 20260508160044 | 65 | 86 | 4.0 | 7.0 | 0.00 | 0.00 | 0.00 | 82 | 1016.5 |
| 20260508154601 | 64 | 108 | 2.0 | 4.0 | 0.00 | 0.00 | 0.00 | 84 | 1017.0 |
| 20260508153040 | 64 | 105 | 1.0 | 4.0 | 0.00 | 0.00 | 0.00 | 84 | 1017.2 |
| 20260508151540 | 63 | 123 | 2.0 | 6.0 | 0.00 | 0.00 | 0.00 | 85 | 1017.5 |